Home > Weather > Canterbury > Past weeks

Flag for United Kingdom Past Weather in Canterbury, England, United Kingdom — Yesterday and Last 2 Weeks

Now
51 °F

Cool.


Feels Like: 47 °F
Forecast: 48 / 58 °F
Wind: 12 mph from North

Location: Manston

Current Time: May 24, 2016 at 9:15:33 AM

Latest Report: May 24, 2016 at 8:00 AM


Visibility: 17 mi

Pressure: 30.17 "Hg

Humidity: 86%

Dew Point: 47 °F

Location of CanterburyLocation

Past Weather in Canterbury — Graph

°F

Canterbury Temperature Yesterday

Maximum temperature yesterday: 61 °F (at 3:00 PM)
Minimum temperature yesterday: 51 °F (at 11:00 PM)
Average temperature yesterday: 54 °F

High & Low Weather Summary for the Past Weeks

 TemperatureHumidityPressure
High71 °F (May 9, 2:00 PM)100% (May 10, 5:00 AM)30.22 "Hg (May 10, 5:00 AM)
Low38 °F (May 15, 4:00 AM)54% (May 15, 5:00 PM)29.54 "Hg (May 12, 5:00 AM)
Average55 °F84%29.88 "Hg
* Reported May 9 9:00 AM — May 24 8:00 AM, Canterbury, Weather by CustomWeather, © 2016

Note: Actual official high and low records may vary slightly from our data, if they occured in-between our weather recording intervals... More about our weather records

Advertising

Canterbury Weather History for the Previous 24 Hours

Scroll right to see more
 ConditionsComfort  
Time TempWeatherWind HumidityBarometerVisibility
8:00 AM
Tue, May 24
51 °FCool.12 mph86%30.17 "Hg17 mi
7:00 AM50 °FCool.12 mph91%30.16 "Hg14 mi
6:00 AM50 °FCool.10 mph90%30.17 "Hg19 mi
5:00 AM49 °FCool.10 mph89%30.17 "Hg22 mi
4:00 AM49 °FCool.10 mph84%30.17 "Hg31 mi
3:00 AM49 °FCool.13 mph86%30.17 "Hg28 mi
2:00 AM50 °FCool.10 mph88%30.18 "Hg22 mi
1:00 AM51 °FCool.8 mph90%30.17 "Hg19 mi
12:00 AM51 °FCool.6 mph91%30.18 "Hg19 mi
11:00 PM
Mon, May 23
51 °FCool.6 mph90%30.18 "Hg19 mi
10:00 PM51 °FCool.7 mph92%30.17 "Hg12 mi
9:00 PM51 °FCool.7 mph93%30.16 "Hg11 mi
8:00 PM53 °FCool.8 mph92%30.15 "Hg12 mi
7:00 PM55 °FCool.12 mph92%30.13 "Hg18 mi
6:00 PM57 °FCool.6 mph85%30.10 "Hg16 mi
5:00 PM59 °FCool.3 mph71%30.08 "Hg31 mi
4:00 PM54 °FLots of rain. Cloudy.12 mph86%30.09 "Hg7 mi
3:00 PM61 °FCool.10 mph74%30.07 "Hg22 mi
2:00 PM61 °FCool.9 mph77%30.06 "Hg14 mi
1:00 PM59 °FCool.9 mph85%30.05 "Hg22 mi
12:00 PM55 °FCool.12 mph91%30.04 "Hg19 mi
11:00 AM54 °FCool.13 mph88%30.03 "Hg19 mi
10:00 AM53 °FCool.12 mph93%30.01 "Hg12 mi
9:00 AM51 °FCool.13 mph95%29.99 "Hg12 mi
Weather by CustomWeather, © 2016

See weather overviewHow to use our weather pages